Regional Weather Roundup
Issued by NWS Jackson, KY

Home | Current Version | Previous Version | Graphics & Text | Print | Product List | Glossary On
Versions: 1 2 3 4 5 6 7 8 9 10 11 12 13 14 15 16 17 18 19 20 21 22 23 24 25 26 27 28 29 30 31 32 33 34 35 36 37 38 39 40 41 42 43 44 45 46 47 48 49 50
403
ASUS43 KJKL 202310
RWRJKL

EAST KENTUCKY HOURLY WEATHER ROUNDUP
NATIONAL WEATHER SERVICE JACKSON KY
700 PM EDT SUN AUG 20 2017

NOTE: "FAIR" INDICATES FEW OR NO CLOUDS BELOW 12,000 FEET WITH
NO SIGNIFICANT WEATHER AND/OR OBSTRUCTIONS TO VISIBILITY.

* THESE REPORTS ARE NOT UNDER NWS QUALITY CONTROL AND MAY NOT
  REPORT WEATHER SUCH AS PRECIPITATION AND FOG.

KYZ079-080-083-085-087-088-110-112-115-119-120-210000
...EASTERN KENTUCKY...

CITY           SKY/WX    TMP DP  RH WIND       PRES   REMARKS
JACKSON        SUNNY     84  69  60 CALM      30.12S
LONDON         SUNNY     87  59  38 VRB3      30.11S
SOMERSET*      SUNNY     86  57  37 CALM      30.11S
MONTICELLO*    SUNNY     84  71  65 N13       30.12
WILLIAMSBURG*  CLEAR     86  61  42 CALM      30.11S
MIDDLESBORO*   SUNNY     83  73  73 CALM      30.12R
HARLAN APT*    CLEAR     84  68  58 CALM      30.13S
PIKE CO APT*     N/A     83  68  59 CALM      30.13R
BIG SANDY APT* CLEAR     84  69  60 CALM      30.12R
MOREHEAD APT*  CLEAR     84  68  58 CALM      30.12R
$$

KYZ035-036-041-042-044-050-067-078-099-210000
...CENTRAL KENTUCKY...

CITY           SKY/WX    TMP DP  RH WIND       PRES   REMARKS
MT STERLING*   SUNNY     86  68  54 SW5       30.12R
FLEMING/MASON* SUNNY     85  69  58 S5        30.10R
DANVILLE*      MOSUNNY   86  68  54 S3        30.11R
LEXINGTON      SUNNY     87  67  51 SW6       30.09R HX  90
FRANKFORT      SUNNY     87  64  46 SW7       30.07R
LOUISVILLE     MOSUNNY   91  64  40 W8        30.05R HX  92
LEBANON*         N/A     86  66  51 S5        30.09R
GLASGOW*       SUNNY     88  68  50 W3        30.08S HX  92
BOWLING GREEN  MOSUNNY   90  68  48 W5        30.06S HX  94
$$

KYZ091>093-OHZ055-061-077-WVZ005-015-034-035-042-210000
...SOUTHERN OHIO/WEST VIRGINIA...

CITY           SKY/WX    TMP DP  RH WIND       PRES   REMARKS
COVINGTON      PTSUNNY   86  68  54 SW3       30.07R
COLUMBUS       MOSUNNY   86  69  56 S8        30.06R HX  90
DAYTON         PTSUNNY   85  63  47 W12       30.08R
WILMINGTON     SUNNY     83  71  67 S5        30.08R
HUNTINGTON     SUNNY     86  67  52 SE3       30.08R
CHARLESTON     MOSUNNY   86  63  45 SW7       30.09S
PINEVILLE*     SUNNY     76  70  80 MISG      30.20R
BECKLEY        SUNNY     82  61  48 CALM      30.19S
BLUEFIELD      SUNNY     81  61  50 CALM      30.21S
LOGAN CO APT*    N/A     84  66  54 CALM      30.13S
$$

VAZ002-007-008-TNZ017-027-036-066-071-210000
...SOUTHWEST VIRGINIA/EAST TENNESSEE...

CITY           SKY/WX    TMP DP  RH WIND       PRES   REMARKS
WISE*          MOSUNNY   79  63  57 CALM      30.21S
JONESVILLE*      N/A     86  66  51 CALM      30.14S
ABINGDON*      SUNNY     85  66  53 CALM      30.16S
BRISTOL        MOSUNNY   86  68  54 CALM      30.12S
MORRISTOWN*    CLEAR     88  61  40 NW5       30.10R
SEVIERVILLE*   PTCLDY    88  63  42 NW6       30.08R
KNOXVILLE      MOSUNNY   89  62  40 NW3       30.07F
LAFOLLETTE*    CLEAR     86  70  58 CALM      30.14R HX  90
OAK RIDGE      SUNNY     89  66  46 VRB3      30.10S HX  91
CROSSVILLE     MOSUNNY   81  68  64 CALM      30.16R
NASHVILLE      PTSUNNY   91  55  29 CALM      30.06S
$$

...KEY TO REMARKS...
VSB - VISIBILITY IN MILES
WCI - WIND CHILL INDEX
HX  - HEAT INDEX

$$




USA.gov is the U.S. government's official web portal to all federal, state and local government web resources and services.